Regional Weather Roundup
Issued by NWS Little Rock, AR

Home | Current Version | Previous Version | Graphics & Text | Print | Product List | Glossary On
Versions: 1 2 3 4 5 6 7 8 9 10 11 12 13 14 15 16 17 18 19 20 21 22 23 24 25 26 27 28 29 30 31 32 33 34 35 36 37 38 39 40 41 42 43 44 45 46 47 48 49 50
516
ASUS44 KLZK 171805
RWRLZK

WEATHER ROUNDUP FOR ARKANSAS
NATIONAL WEATHER SERVICE LITTLE ROCK AR
1200 PM CST WED JAN 17 2018

NOTE: "FAIR" INDICATES FEW OR NO CLOUDS BELOW 12,000 FEET WITH NO
SIGNIFICANT WEATHER AND/OR OBSTRUCTIONS TO VISIBILITY.

ARZ001-003-010-029-171900-
NORTHWEST ARKANSAS

CITY           SKY/WX    TMP DP  RH WIND       PRES   REMARKS
FAYETTEVILLE   SUNNY     23   8  52 VRB3      30.68F
6HR MIN TEMP:  -1; 6HR MAX TEMP:  23;

FORT SMITH     SUNNY     22   6  50 CALM      30.76F
6HR MIN TEMP:   6; 6HR MAX TEMP:  22;

HARRISON       SUNNY     21   9  59 VRB5      30.66F WCI  15
6HR MIN TEMP:   0; 6HR MAX TEMP:  21;

BENTONVILLE    SUNNY     24  10  55 CALM      30.69F
6HR MIN TEMP:   1; 6HR MAX TEMP:  24;

ROGERS         SUNNY     27  10  49 SW5       30.67F WCI  22
6HR MIN TEMP:  -2; 6HR MAX TEMP:  27;

SILOAM SPGS    SUNNY     20   8  60 NW3       30.69F
6HR MIN TEMP:   1; 6HR MAX TEMP:  21;

HIGHFILL       SUNNY     21   9  59 VRB5      30.68F WCI  15
6HR MIN TEMP:   1; 6HR MAX TEMP:  21;

$$

ARZ004-005-016-171900-
NORTH CENTRAL ARKANSAS

CITY           SKY/WX    TMP DP  RH WIND       PRES   REMARKS
BATESVILLE     SUNNY     20   8  60 W7        30.75F WCI  11
6HR MIN TEMP:   4; 6HR MAX TEMP:  20;

FLIPPIN        SUNNY     27  10  49 CALM      30.73F
6HR MIN TEMP:   1; 6HR MAX TEMP:  27;

MTN HOME       SUNNY     15  10  80 VRB5      30.70F WCI   8
6HR MIN TEMP:  -2; 6HR MAX TEMP:  15; 6HR PCP: TRACE;

$$

ARZ040-041-171900-
WEST CENTRAL ARKANSAS

CITY           SKY/WX    TMP DP  RH WIND       PRES   REMARKS
MENA           SUNNY     28   9  43 SE3       30.69F
MOUNT IDA      SUNNY     24   8  50 VRB3      30.70F
6HR MIN TEMP:   3; 6HR MAX TEMP:  25;

$$

ARZ009-017-025-026-028-171900-
NORTHEAST ARKANSAS

CITY           SKY/WX    TMP DP  RH WIND       PRES   REMARKS
JONESBORO      FAIR      19  10  68 CALM      30.75F
6HR MIN TEMP:   8; 6HR MAX TEMP:  20;

NEWPORT        FAIR      20   8  60 N7        30.77  WCI  11
6HR MIN TEMP:   6; 6HR MAX TEMP:  20;

WALNUT RIDGE   FAIR      23   9  55 VRB3      30.76F
6HR MIN TEMP:   4; 6HR MAX TEMP:  23;

BLYTHEVILLE    CLOUDY    17   9  70 N3        30.76F
6HR MIN TEMP:   0; 6HR MAX TEMP:  17; 6HR PCP: TRACE;

$$

ARZ022-023-033-042-044-171900-
CENTRAL ARKANSAS

CITY           SKY/WX    TMP DP  RH WIND       PRES   REMARKS
LITTLE ROCK    SUNNY     20   8  60 NE3       30.79F
6HR MIN TEMP:   7; 6HR MAX TEMP:  20;

JACKSONVILLE   SUNNY     20   7  56 CALM      30.76F
6HR MIN TEMP:   4; 6HR MAX TEMP:  21;

SEARCY         FAIR      25  10  53 VRB3      30.77F
6HR MIN TEMP:   6; 6HR MAX TEMP:  25;

HOT SPRINGS    SUNNY     22   9  57 SE5       30.74F WCI  16
6HR MIN TEMP:  10; 6HR MAX TEMP:  24;

RUSSELLVILLE   SUNNY     21   7  54 W5        30.76F WCI  15
6HR MIN TEMP:   5; 6HR MAX TEMP:  22;

$$

ARZ036-171900-
EAST ARKANSAS

CITY           SKY/WX    TMP DP  RH WIND       PRES   REMARKS
WEST MEMPHIS   FAIR      14   9  80 VRB6      30.76F WCI   5
6HR MIN TEMP:   3; 6HR MAX TEMP:  15;

$$

ARZ050-053-066-070-073-171900-
SOUTHWEST ARKANSAS

CITY           SKY/WX    TMP DP  RH WIND       PRES   REMARKS
ARKADELPHIA    FAIR      25  12  58 S6        30.80F WCI  18
6HR MIN TEMP:   6; 6HR MAX TEMP:  25;

CAMDEN         FAIR      28   5  37 CALM      30.80F
TEXARKANA      SUNNY     21   6  52 CALM      30.78F
6HR MIN TEMP:   6; 6HR MAX TEMP:  21;

EL DORADO      FAIR      22  11  62 N6        30.78F WCI  14
6HR MIN TEMP:   3; 6HR MAX TEMP:  22;

DE QUEEN       SUNNY     25   8  48 W3        30.76F
6HR MIN TEMP:   6; 6HR MAX TEMP:  25;

$$

ARZ056-057-069-171900-
SOUTHEAST ARKANSAS

CITY           SKY/WX    TMP DP  RH WIND       PRES   REMARKS
PINE BLUFF     FAIR      15   7  70 CALM      30.80F
6HR MIN TEMP:   5; 6HR MAX TEMP:  16;

STUTTGART      FAIR      18   8  65 NW5       30.79F WCI  11
6HR MIN TEMP:   6; 6HR MAX TEMP:  18;

MONTICELLO     FAIR      22   8  55 N6        30.77F WCI  14
6HR MIN TEMP:   6; 6HR MAX TEMP:  22;


$$






USA.gov is the U.S. government's official web portal to all federal, state and local government web resources and services.